[[{"header":{"parameterUnit":"m.s-1","parameterCategory":1,"la1":30.2991,"la2":30.254,"lo1":-89.0895,"lo2":-89.0444,"dy":0.0017,"dx":0.0017,"nx":28,"ny":28,"refTime":"2025-12-05T03:00:00:Z","depth":0,"parameterNumber":2,"parameterNumberName":"U-component_of_WINDS"},"data":[0,0,0,0,0,0,0,0,0,0,0,0,0,0,0,0,0,0,0,0,0,0,0,0,0,0,0,0,0,0,0,0,0,0,0,0,0,0,0,0,0,0,0,0,0,0,0,0,0,0,0,0,0,0,0,0,0,0,-1.5825,-1.5825,0,-1.5895,-1.5896,-1.5897,-1.5883,-1.5882,-1.5881,-1.5879,-1.5947,-1.595,-1.5953,0,0,0,0,0,0,0,0,0,0,0,0,0,-1.5672,-1.5675,-1.5825,-1.5826,-1.5826,-1.5895,-1.5896,-1.5897,-1.5883,-1.5882,-1.588,-1.5879,-1.5946,-1.5949,-1.5953,0,0,0,0,0,0,0,0,0,0,0,0,0,-1.574,-1.5676,-1.5824,-1.5828,-1.5829,-1.5895,-1.5896,-1.5897,-1.5884,-1.5882,-1.588,-1.5878,-1.5945,-1.5949,-1.5953,-1.6019,0,0,-1.5967,-1.5969,0,0,0,0,0,0,0,0,-1.5736,-1.5746,-1.5827,-1.5828,-1.5829,-1.5879,-1.5867,-1.5938,-1.5884,-1.5863,-1.5879,-1.5877,-1.5925,-1.5931,-1.5948,-1.6022,-1.6025,-1.5967,-1.597,-1.5972,-1.5973,0,0,0,0,0,0,0,-1.5732,-1.5743,-1.5852,-1.5828,-1.5829,-1.5824,-1.5832,-1.588,-1.5904,-1.5865,-1.5864,-1.5873,-1.5926,-1.5944,-1.595,-1.6026,-1.5967,-1.5971,-1.5974,-1.5976,-1.6155,-1.6157,0,0,0,0,0,0,-1.5727,-1.5739,-1.585,-1.5854,-1.5777,-1.5828,-1.5837,-1.5864,-1.5903,-1.5907,-1.5874,-1.5872,-1.5938,-1.5945,-1.5952,-1.6031,-1.5972,-1.5976,-1.5979,-1.6153,-1.6155,-1.6158,0,0,0,0,0,0,-1.5723,-1.5737,-1.5847,-1.5797,-1.581,-1.5833,-1.5864,-1.5867,-1.5886,-1.591,-1.5914,-1.5889,-1.5936,-1.5946,-1.6002,-1.6033,-1.5978,-1.5982,-1.615,-1.6154,-1.6156,-1.6189,0,0,0,0,0,0,-1.5719,-1.5736,-1.5762,-1.5797,-1.5813,-1.5898,-1.5866,-1.587,-1.5894,-1.5891,-1.5926,-1.5929,-1.5936,-1.5996,-1.6007,-1.6038,-1.5986,-1.6148,-1.6152,-1.6155,-1.6186,-1.6193,-1.62,0,0,0,0,0,-1.5714,-1.5768,-1.5764,-1.5777,-1.5847,-1.59,-1.5909,-1.5916,-1.5896,-1.5922,-1.5938,-1.5928,-1.6028,-1.6002,-1.6014,-1.6047,-1.6146,-1.6151,-1.6155,-1.6183,-1.6192,-1.62,0,0,0,0,0,0,-1.5734,-1.5772,-1.5768,-1.5836,-1.5865,-1.5898,-1.5931,-1.5926,-1.596,-1.5956,-1.5962,-1.597,-1.6028,-1.6043,-1.6013,-1.6112,-1.6084,-1.6091,-1.61,-1.6109,-1.6116,-1.6112,-1.5989,0,0,0,0,0,-1.5747,-1.5789,-1.5819,-1.5875,-1.589,-1.5908,-1.5931,-1.5935,-1.5964,-1.5976,-1.5996,-1.6024,-1.6061,-1.6086,-1.6122,-1.6187,-1.6194,-1.6216,-1.6223,-1.6229,-1.6235,-1.627,-1.628,-1.6173,-1.6173,-1.6173,0,0,-1.5773,-1.5799,-1.5825,-1.588,-1.5903,-1.5944,-1.5918,-1.5963,-1.5994,-1.5982,-1.6038,-1.6053,-1.6084,-1.6145,-1.6173,-1.616,-1.6266,-1.6235,-1.6239,-1.6242,-1.6276,-1.6286,-1.6295,-1.6176,-1.6176,-1.6175,0,0,-1.5842,-1.5866,-1.5916,-1.5939,-1.5975,-1.5986,-1.5998,-1.6031,-1.6042,-1.6097,-1.6089,-1.6124,-1.6189,-1.6211,-1.6231,-1.6307,-1.6299,-1.6318,-1.6355,-1.639,-1.6398,-1.6405,-1.6433,-1.6442,-1.6324,-1.6324,-1.6324,0,-1.5869,-1.5934,-1.5941,-1.5987,-1.6011,-1.6004,-1.6053,-1.6075,-1.612,-1.6136,-1.612,-1.6201,-1.6221,-1.6287,-1.6306,-1.6322,-1.6335,-1.6315,-1.6396,-1.6404,-1.6411,-1.6437,-1.6447,-1.6327,-1.6326,-1.6326,-1.6326,0,-1.5965,-1.601,-1.6045,-1.609,-1.6118,-1.6165,-1.6178,-1.6205,-1.6205,-1.6217,-1.6273,-1.6297,-1.6338,-1.6353,-1.6353,-1.6419,-1.641,-1.6395,-1.6367,-1.6423,-1.6448,-1.6458,-1.633,-1.6329,-1.6328,-1.6328,0,0,-1.6051,-1.6099,-1.6112,-1.6132,-1.617,-1.6204,-1.6249,-1.6291,-1.6313,-1.6343,-1.6381,-1.6436,-1.6422,-1.6445,-1.6447,-1.6477,-1.6535,-1.6459,-1.6459,-1.6472,-1.6608,-1.662,-1.6631,-1.6529,-1.6531,-1.6533,-1.6606,0,-1.6124,-1.6208,-1.6215,-1.6289,-1.6329,-1.6322,-1.6362,-1.6388,-1.64,-1.6435,-1.6447,-1.6486,-1.6465,-1.6479,-1.6508,-1.6522,-1.6563,-1.6517,-1.6564,-1.6566,-1.6558,-1.6644,-1.6656,-1.6724,-1.6615,-1.6617,-1.6618,0,-1.6221,-1.6256,-1.6335,-1.6366,-1.6383,-1.6419,-1.6457,-1.649,-1.6519,-1.6526,-1.655,-1.6548,-1.6593,-1.6563,-1.6625,-1.6593,-1.6612,-1.6622,-1.6625,-1.663,-1.6596,-1.6652,-1.6746,-1.6757,-1.6633,-1.6632,-1.6631,0,-1.6276,-1.6342,-1.6398,-1.6415,-1.6453,-1.6479,-1.6495,-1.6523,-1.6546,-1.6578,-1.6594,-1.663,-1.665,-1.6677,-1.6683,-1.6661,-1.6745,-1.6715,-1.6751,-1.6751,-1.677,-1.6769,-1.6869,-1.6781,-1.6781,-1.6781,-1.678,0,-1.6357,-1.6405,-1.6423,-1.6457,-1.6511,-1.6518,-1.657,-1.6584,-1.6608,-1.6644,-1.6639,-1.6672,-1.6679,-1.6712,-1.6718,-1.6768,-1.6776,-1.6782,-1.6783,-1.6783,-1.6783,-1.6797,-1.6793,-1.6783,-1.6783,-1.6782,-1.6782,0,-1.6428,-1.6442,-1.6502,-1.6534,-1.6542,-1.658,-1.6606,-1.6638,-1.6649,-1.6694,-1.6705,-1.6721,-1.6761,-1.677,-1.6817,-1.682,-1.688,-1.6875,-1.6871,-1.6871,-1.6906,-1.6903,-1.702,-1.7035,-1.6936,-1.6937,-1.6938,0,-1.648,-1.6517,-1.6553,-1.6577,-1.6596,-1.6634,-1.6659,-1.6666,-1.6691,-1.6727,-1.6754,-1.6793,-1.6825,-1.6888,-1.6903,-1.6939,-1.6936,-1.6974,-1.6941,-1.694,-1.6937,-1.6935,-1.6938,-1.6981,-1.6982,-1.6983,-1.6983,0,-1.657,-1.6575,-1.6611,-1.665,-1.668,-1.671,-1.6739,-1.6759,-1.677,-1.6798,-1.6839,-1.6864,-1.6912,-1.6951,-1.6986,-1.7001,-1.6994,-1.6993,-1.7004,-1.7005,-1.7001,-1.7004,-1.6889,-1.6991,-1.699,-1.699,-1.6989,-1.6989,-1.6633,-1.6666,-1.6696,-1.6737,-1.6759,-1.6786,-1.6818,-1.6833,-1.6868,-1.6909,-1.691,-1.6955,-1.6981,-1.7028,-1.7045,-1.7079,-1.7067,-1.7081,-1.7085,-1.7089,-1.7092,-1.6995,-1.7085,-1.7085,-1.7084,-1.7084,-1.7084,0,-1.6723,-1.6742,-1.678,-1.6821,-1.6852,-1.6844,-1.6875,-1.6901,-1.6942,-1.6967,-1.6999,-1.7046,-1.7083,-1.71,-1.7136,-1.716,-1.7158,-1.7169,-1.7168,-1.7172,-1.7101,-1.7089,-1.7171,-1.7171,-1.7171,-1.7171,-1.7171,-1.7171,-1.6774,-1.6829,-1.6837,-1.6902,-1.692,-1.6966,-1.6984,-1.7008,-1.7029,-1.7082,-1.7113,-1.7125,-1.7147,-1.7185,-1.7218,-1.7222,-1.7235,-1.7249,-1.7251,-1.7185,-1.7176,-1.7168,-1.7157,-1.7252,-1.7252,-1.7319,-1.732,-1.732]},{"header":{"parameterUnit":"m.s-1","parameterCategory":1,"la1":30.2991,"la2":30.254,"lo1":-89.0895,"lo2":-89.0444,"dy":0.0017,"dx":0.0017,"nx":28,"ny":28,"refTime":"2025-12-05T03:00:00:Z","depth":0,"parameterNumber":3,"parameterNumberName":"V-component_of_WINDS"},"data":[0,0,0,0,0,0,0,0,0,0,0,0,0,0,0,0,0,0,0,0,0,0,0,0,0,0,0,0,0,0,0,0,0,0,0,0,0,0,0,0,0,0,0,0,0,0,0,0,0,0,0,0,0,0,0,0,0,0,-3.5253,-3.5255,0,-3.541,-3.5412,-3.5414,-3.5415,-3.5413,-3.5411,-3.5409,-3.5567,-3.5573,-3.5579,0,0,0,0,0,0,0,0,0,0,0,0,0,-3.4954,-3.4959,-3.5253,-3.5255,-3.5257,-3.541,-3.5412,-3.5414,-3.5415,-3.5413,-3.541,-3.5408,-3.5565,-3.5572,-3.558,0,0,0,0,0,0,0,0,0,0,0,0,0,-3.5094,-3.4961,-3.5253,-3.5276,-3.528,-3.5409,-3.5412,-3.5415,-3.5416,-3.5413,-3.541,-3.5407,-3.5563,-3.5572,-3.5581,-3.5697,0,0,-3.5609,-3.5613,0,0,0,0,0,0,0,0,-3.5086,-3.5105,-3.5271,-3.5275,-3.5279,-3.539,-3.5364,-3.5509,-3.5417,-3.5364,-3.5409,-3.5406,-3.5511,-3.5524,-3.556,-3.5704,-3.5711,-3.5609,-3.5615,-3.5619,-3.5621,0,0,0,0,0,0,0,-3.5077,-3.5099,-3.5315,-3.5273,-3.5278,-3.5278,-3.5295,-3.5392,-3.5452,-3.5368,-3.5369,-3.5388,-3.5512,-3.5551,-3.5563,-3.5713,-3.5609,-3.5617,-3.5623,-3.5626,-3.5962,-3.5965,0,0,0,0,0,0,-3.5062,-3.509,-3.531,-3.532,-3.5174,-3.5286,-3.5305,-3.5357,-3.5451,-3.5463,-3.539,-3.5387,-3.5537,-3.5553,-3.5569,-3.5712,-3.5619,-3.5627,-3.5633,-3.5959,-3.5963,-3.5966,0,0,0,0,0,0,-3.5056,-3.5082,-3.5304,-3.5205,-3.5234,-3.5295,-3.5353,-3.5362,-3.5401,-3.5467,-3.5478,-3.5418,-3.5535,-3.5556,-3.5665,-3.5717,-3.5631,-3.564,-3.5954,-3.596,-3.5965,-3.5997,0,0,0,0,0,0,-3.5047,-3.508,-3.5125,-3.5206,-3.5239,-3.5398,-3.5357,-3.5367,-3.5417,-3.5414,-3.5497,-3.5508,-3.5534,-3.5652,-3.5674,-3.5728,-3.5647,-3.595,-3.5957,-3.5963,-3.5992,-3.6003,-3.6012,0,0,0,0,0,-3.5037,-3.5127,-3.5127,-3.5153,-3.5296,-3.5401,-3.542,-3.5449,-3.5421,-3.5466,-3.5509,-3.5505,-3.5708,-3.5663,-3.5688,-3.5745,-3.5947,-3.5955,-3.5962,-3.5987,-3.6001,-3.6012,0,0,0,0,0,0,-3.5048,-3.5138,-3.5139,-3.5258,-3.5322,-3.5401,-3.5459,-3.5462,-3.5535,-3.553,-3.5562,-3.5581,-3.569,-3.5729,-3.5677,-3.5863,-3.5824,-3.5837,-3.5834,-3.5847,-3.5857,-3.5845,-3.5654,0,0,0,0,0,-3.5065,-3.5143,-3.5217,-3.5315,-3.5347,-3.5398,-3.5444,-3.5462,-3.5529,-3.5556,-3.5607,-3.5672,-3.575,-3.5801,-3.5877,-3.5998,-3.6016,-3.6049,-3.606,-3.6068,-3.6079,-3.6146,-3.6162,-3.5992,-3.5992,-3.5992,0,0,-3.5099,-3.5158,-3.5205,-3.5319,-3.537,-3.545,-3.542,-3.5506,-3.5565,-3.5568,-3.5675,-3.5715,-3.5789,-3.5905,-3.5959,-3.5941,-3.613,-3.6078,-3.6084,-3.609,-3.6156,-3.6172,-3.6186,-3.5997,-3.5996,-3.5995,0,0,-3.5203,-3.5255,-3.5343,-3.5396,-3.5475,-3.5509,-3.553,-3.5609,-3.5636,-3.5744,-3.5748,-3.5819,-3.5953,-3.6007,-3.6051,-3.6177,-3.6176,-3.6201,-3.6254,-3.632,-3.6333,-3.6345,-3.6391,-3.6406,-3.6212,-3.6212,-3.6212,0,-3.5236,-3.5357,-3.5388,-3.5474,-3.5524,-3.5532,-3.5622,-3.5671,-3.577,-3.5804,-3.5783,-3.5953,-3.6004,-3.6132,-3.6163,-3.6199,-3.6224,-3.6191,-3.6329,-3.6341,-3.6353,-3.6397,-3.6413,-3.6214,-3.6214,-3.6214,-3.6214,0,-3.5393,-3.5477,-3.5539,-3.5636,-3.5693,-3.578,-3.5824,-3.5878,-3.5891,-3.5927,-3.6037,-3.6098,-3.6187,-3.6219,-3.6232,-3.635,-3.6337,-3.6322,-3.6283,-3.6371,-3.6413,-3.643,-3.6218,-3.6217,-3.6216,-3.6216,0,0,-3.5507,-3.5622,-3.5644,-3.5689,-3.5777,-3.5842,-3.593,-3.6018,-3.6064,-3.6133,-3.6207,-3.6321,-3.6309,-3.636,-3.6379,-3.6436,-3.6533,-3.6415,-3.6417,-3.6434,-3.6667,-3.6678,-3.6696,-3.6533,-3.6536,-3.6539,-3.6661,0,-3.562,-3.5778,-3.5809,-3.5945,-3.6023,-3.6033,-3.611,-3.6172,-3.6208,-3.6279,-3.6319,-3.64,-3.6377,-3.6408,-3.6465,-3.6509,-3.658,-3.65,-3.6602,-3.6605,-3.6583,-3.6718,-3.6729,-3.6842,-3.6677,-3.668,-3.6682,0,-3.5773,-3.5847,-3.5991,-3.6071,-3.6105,-3.6173,-3.6257,-3.6325,-3.6396,-3.6419,-3.6476,-3.649,-3.6581,-3.6539,-3.6666,-3.6611,-3.6655,-3.6682,-3.6688,-3.6698,-3.6649,-3.6732,-3.6878,-3.6895,-3.6708,-3.6706,-3.6704,0,-3.5842,-3.5977,-3.6082,-3.612,-3.6215,-3.6263,-3.6304,-3.6373,-3.6424,-3.6497,-3.6531,-3.6614,-3.6659,-3.6722,-3.6757,-3.6723,-3.6882,-3.6842,-3.6903,-3.6902,-3.6935,-3.6932,-3.709,-3.6964,-3.6963,-3.6963,-3.6963,0,-3.5965,-3.6053,-3.6114,-3.6178,-3.6277,-3.6312,-3.6409,-3.645,-3.6512,-3.6584,-3.6597,-3.6664,-3.6707,-3.678,-3.6808,-3.6909,-3.6929,-3.695,-3.6956,-3.6949,-3.6946,-3.6977,-3.697,-3.6968,-3.6967,-3.6966,-3.6965,0,-3.6058,-3.6103,-3.6217,-3.6298,-3.6321,-3.639,-3.646,-3.6522,-3.6559,-3.665,-3.6674,-3.6731,-3.6818,-3.686,-3.6968,-3.6987,-3.7101,-3.7102,-3.7077,-3.708,-3.7138,-3.7132,-3.7321,-3.7348,-3.7204,-3.7205,-3.7206,0,-3.6133,-3.6202,-3.6291,-3.6341,-3.6384,-3.6464,-3.6517,-3.6555,-3.6609,-3.6697,-3.6749,-3.6837,-3.6909,-3.7048,-3.7099,-3.7181,-3.7185,-3.7245,-3.7197,-3.7188,-3.7186,-3.7181,-3.7189,-3.7254,-3.7255,-3.7256,-3.7257,0,-3.6263,-3.6282,-3.6358,-3.6443,-3.6506,-3.6574,-3.6641,-3.6681,-3.6729,-3.679,-3.688,-3.6936,-3.7047,-3.7134,-3.7221,-3.7263,-3.7269,-3.7272,-3.7291,-3.7284,-3.7266,-3.7277,-3.7101,-3.7268,-3.7267,-3.7266,-3.7265,-3.7265,-3.6349,-3.6411,-3.6484,-3.6569,-3.6623,-3.6686,-3.6749,-3.6795,-3.6871,-3.6964,-3.6982,-3.7078,-3.7148,-3.7265,-3.7311,-3.7386,-3.7372,-3.7399,-3.7406,-3.7412,-3.7415,-3.7255,-3.7402,-3.7402,-3.7402,-3.7402,-3.7401,0,-3.6479,-3.6527,-3.6605,-3.6699,-3.6766,-3.6767,-3.6841,-3.6897,-3.6981,-3.7047,-3.7119,-3.7222,-3.7308,-3.7366,-3.7453,-3.7502,-3.7506,-3.7523,-3.752,-3.7529,-3.7422,-3.7398,-3.7518,-3.7518,-3.7518,-3.7518,-3.7518,-3.7518,-3.6555,-3.6659,-3.6687,-3.6819,-3.6866,-3.6961,-3.7003,-3.7061,-3.7114,-3.723,-3.7301,-3.7339,-3.7403,-3.7494,-3.7572,-3.7587,-3.7618,-3.7636,-3.765,-3.7549,-3.7537,-3.7525,-3.7502,-3.7642,-3.7642,-3.7751,-3.7752,-3.7753]}]]